Location: Newark
(50.4348°N, 30.5552°E)
Time: 21:02:48
(UTC+00:00)

Vanguard 3 - Pass Details

Date: 24 January 2020
Orbit: 508 x 3263 km, 33.3° (Epoch: 25 February)

Event Time Altitude Azimuth Distance (km) Brightness Sun altitude
Rises 15:00:07 0° 219° (SW) 7,024 13.3 -4.2°
Reaches altitude 10° 15:05:29 10° 210° (SSW) 6,147 12.6 -5.0°
Maximum altitude 15:21:32 33° 157° (SSE) 4,385 10.8 -7.4°
Drops below altitude 10° 15:35:05 10° 102° (ESE) 5,225 10.7 -9.4°
Enters shadow 15:37:11 - 97° (E) 5,554 10.8 -9.7°
